모두
Briscoes Catarina Ranch Airport (Catarina, TX) 1TE1 기상
There is no TAF data available at 1TE1 or any nearby airports.
There is no METAR data available at 1TE1. Showing METAR data for KCZT (19 mi 북).
최근 CZT METAR 이력(1TE1에 대한 데이터 없음)
| Date | Time (CDT) | Flight Rules | Wind Dir. | Speed | Type | Height AGL (ft) | Visibility | Temp (°C) | Temp (°F) | Dew Point (°C) | Dew Point (°F) | Rel. Humid. | Pressure | Density Altitude | Remarks |
|---|---|---|---|---|---|---|---|---|---|---|---|---|---|---|---|
| 04-5월 | 11:15 | VFR | 160° | 11 kt | 10 miles | 25° | 77° | 17° | 62° | 61% | 29.94 in Hg | 1,778 ft | Wind gusting to 15 KT | ||
| 04-5월 | 10:55 | VFR | 190° | 10 kt | 10 miles | 24° | 75° | 17° | 62° | 65% | 29.96 in Hg | 1,638 ft | |||
| 04-5월 | 10:15 | VFR | 160° | 12 kt | 10 miles | 23° | 73° | 17° | 62° | 69% | 29.95 in Hg | 1,528 ft | Wind gusting to 17 KT | ||
| 04-5월 | 09:55 | VFR | 180° | 11 kt | 10 miles | 22° | 71° | 17° | 62° | 73% | 29.97 in Hg | 1,388 ft | Wind gusting to 16 KT | ||
| 04-5월 | 09:35 | VFR | 170° | 11 kt | 10 miles | 22° | 71° | 18° | 64° | 78% | 29.96 in Hg | 1,398 ft | Wind gusting to 14 KT | ||
| 04-5월 | 09:15 | VFR | 160° | 8 kt | 10 miles | 21° | 69° | 18° | 64° | 83% | 29.96 in Hg | 1,278 ft | |||
| 04-5월 | 08:55 | VFR | 170° | 9 kt | 10 miles | 20° | 68° | 18° | 64° | 88% | 29.96 in Hg | 1,158 ft | |||
| 04-5월 | 08:35 | VFR | 140° | 6 kt | 10 miles | 20° | 68° | 18° | 64° | 88% | 29.97 in Hg | 1,148 ft | |||
| 04-5월 | 08:15 | VFR | 140° | 3 kt | 10 miles | 18° | 64° | 18° | 64° | 100% | 29.97 in Hg | 908 ft | |||
| 04-5월 | 07:55 | VFR | 150° | 4 kt | 10 miles | 17° | 62° | 17° | 62° | 100% | 29.96 in Hg | 798 ft | |||
| 04-5월 | 07:35 | VFR | Calm | 10 miles | 17° | 62° | 17° | 62° | 100% | 29.95 in Hg | 808 ft | ||||
| 04-5월 | 07:15 | VFR | 130° | 3 kt | 10 miles | 17° | 62° | 17° | 62° | 100% | 29.95 in Hg | 808 ft | |||
| 04-5월 | 06:55 | VFR | 160° | 5 kt | 10 miles | 17° | 62° | 17° | 62° | 100% | 29.95 in Hg | 808 ft | |||
| 04-5월 | 06:35 | VFR | Calm | 10 miles | 17° | 62° | 17° | 62° | 100% | 29.95 in Hg | 808 ft | ||||
| 04-5월 | 06:15 | VFR | 140° | 3 kt | 10 miles | 17° | 62° | 17° | 62° | 100% | 29.96 in Hg | 798 ft | |||
| 04-5월 | 05:55 | VFR | 140° | 5 kt | 10 miles | 17° | 62° | 16° | 60° | 94% | 29.95 in Hg | 808 ft | |||
| 04-5월 | 05:35 | VFR | 140° | 4 kt | 10 miles | 17° | 62° | 16° | 60° | 94% | 29.95 in Hg | 808 ft | |||
| 04-5월 | 05:15 | VFR | 150° | 4 kt | 10 miles | 17° | 62° | 16° | 60° | 94% | 29.96 in Hg | 798 ft | |||
| 04-5월 | 04:55 | VFR | 140° | 3 kt | 10 miles | 17° | 62° | 15° | 59° | 88% | 29.98 in Hg | 778 ft | |||
| 04-5월 | 04:15 | VFR | 150° | 3 kt | 10 miles | 18° | 64° | 14° | 57° | 77% | 29.97 in Hg | 908 ft | |||
| 04-5월 | 03:55 | VFR | 160° | 9 kt | 10 miles | 18° | 64° | 13° | 55° | 73% | 29.95 in Hg | 928 ft | |||
| 04-5월 | 03:35 | VFR | 160° | 9 kt | 10 miles | 18° | 64° | 13° | 55° | 73% | 29.97 in Hg | 908 ft | |||
| 04-5월 | 03:15 | VFR | 160° | 7 kt | 10 miles | 18° | 64° | 13° | 55° | 73% | 29.98 in Hg | 898 ft | |||
| 04-5월 | 02:55 | VFR | 160° | 7 kt | 10 miles | 18° | 64° | 13° | 55° | 73% | 29.99 in Hg | 888 ft |
로그인
| 귀하의 브라우저는 지원되지 않습니다.. 브라우저를 업그레이드하세요 |
